TimeCDT,TemperatureF,Dew PointF,Humidity,Sea Level PressureIn,VisibilityMPH,Wind Direction,Wind SpeedMPH,Gust SpeedMPH,PrecipitationIn,Events,Conditions,WindDirDegrees,DateUTC
12:56 AM,54.0,46.9,77,30.17,10.0,SSE,10.4,-,N/A,,Clear,160,2013-10-09 05:56:00
1:56 AM,52.9,46.9,80,30.17,10.0,SSE,9.2,-,N/A,,Clear,150,2013-10-09 06:56:00
2:56 AM,50.9,45.0,80,30.16,10.0,SSE,6.9,-,N/A,,Clear,150,2013-10-09 07:56:00
3:56 AM,50.9,43.9,77,30.18,10.0,SE,3.5,-,N/A,,Clear,140,2013-10-09 08:56:00
4:56 AM,48.9,43.9,83,30.20,10.0,East,4.6,-,N/A,,Clear,100,2013-10-09 09:56:00
5:56 AM,43.9,43.0,97,30.21,10.0,ESE,9.2,-,N/A,,Clear,120,2013-10-09 10:56:00
6:56 AM,45.0,41.9,89,30.22,10.0,SE,5.8,-,N/A,,Clear,130,2013-10-09 11:56:00
7:56 AM,48.9,45.0,86,30.24,10.0,ESE,4.6,-,N/A,,Clear,120,2013-10-09 12:56:00
8:56 AM,56.8,46.9,69,30.24,10.0,SE,4.6,-,N/A,,Clear,130,2013-10-09 13:56:00
9:56 AM,63.0,46.9,56,30.23,10.0,SSE,5.8,-,N/A,,Clear,150,2013-10-09 14:56:00
10:56 AM,65.8,45.0,47,30.22,10.0,Variable,3.5,-,N/A,,Clear,0,2013-10-09 15:56:00
11:56 AM,68.9,45.0,42,30.21,10.0,SE,8.1,-,N/A,,Clear,140,2013-10-09 16:56:00
12:56 PM,70.9,41.9,35,30.19,10.0,ESE,6.9,-,N/A,,Clear,110,2013-10-09 17:56:00
1:56 PM,72.0,41.0,33,30.16,10.0,SSE,4.6,-,N/A,,Clear,160,2013-10-09 18:56:00
2:56 PM,74.8,41.0,30,30.15,10.0,Variable,4.6,-,N/A,,Clear,0,2013-10-09 19:56:00
3:56 PM,73.9,41.9,32,30.14,10.0,SE,6.9,-,N/A,,Clear,130,2013-10-09 20:56:00
4:56 PM,72.0,43.0,35,30.14,10.0,SE,8.1,-,N/A,,Clear,140,2013-10-09 21:56:00
5:56 PM,70.0,43.9,39,30.14,10.0,ESE,4.6,-,N/A,,Clear,120,2013-10-09 22:56:00
6:56 PM,65.8,43.9,45,30.14,10.0,ESE,5.8,-,N/A,,Clear,110,2013-10-09 23:56:00
7:56 PM,61.9,43.9,52,30.15,10.0,ESE,5.8,-,N/A,,Clear,120,2013-10-10 00:56:00
8:56 PM,59.0,45.0,60,30.15,10.0,ESE,9.2,-,N/A,,Clear,120,2013-10-10 01:56:00
9:56 PM,56.8,45.9,67,30.15,10.0,SE,6.9,-,N/A,,Clear,140,2013-10-10 02:56:00
10:56 PM,54.9,45.0,69,30.15,10.0,SE,5.8,-,N/A,,Clear,140,2013-10-10 03:56:00
11:56 PM,54.0,45.9,74,30.14,10.0,SSE,3.5,-,N/A,,Clear,150,2013-10-10 04:56:00